Location: Penton Mewsey
(51.2167°N, 1.5167°W)
Time: 09:01:54
(UTC+00:00)

ERBS - Pass Details

Date: 30 March 2020
Orbit: 410 x 426 km, 57.0° (Epoch: 24 May)

Event Time Altitude Azimuth Distance (km) Brightness Sun altitude
Rises 19:57:28 0° 263° (W) 2,381 7.2 -13.0°
Reaches altitude 10° 19:59:39 10° 271° (W) 1,519 6.2 -13.3°
Maximum altitude 20:02:52 40° 343° (NNW) 650 3.5 -13.7°
Drops below altitude 10° 20:06:07 10° 55° (NE) 1,528 4.8 -14.2°
Enters shadow 20:06:09 10° 55° (NE) 1,538 4.8 -14.2°
